OneWeb SL0683

operational
NORAD ID: 56719 Int'l Des: 2023-068 Owner: ONEWEBN Country: UK Constellation: oneweb
LEOCIRCULARPOLARONEWEB_TYPE

Über OneWeb SL0683

Beschreibung wird geladen...

Live-Position

3D-Globus wird geladen...

Nächste Überflüge

Höhenverlauf

Altitude vs Time

uPlot chart will show altitude changes over time

Zweizeiliger Elementsatz

1 56719U 23068K 26062.10754946 .00000025 00000-0 31353-4 0 9995
2 56719 87.8957 280.3673 0001745 80.6951 279.4377 13.15547290135475
Epoch: 3. März 2026 • Age: 24 hours

Aktueller Status

Höhe 1217.8 km
Geschwindigkeit 7.24 km/s
Subsatellitenpunkt -39.25°S, 56.41°W
Startdatum 20. Mai 2023
Alter 2.7 years
Typ internet

Technische Details

Klassifizierung Payload
Masse 148.00 kg
Trockenmasse 140.00 kg
Gesamtmasse 148.00 kg
Länge 1.30 m
Durchmesser 1.00 m
Spannweite 5.00 m
Form Trapezoid+2 pan
Hersteller ONEWUS
Bus-Typ ARROW
Phasenstatus In Orbit
Besitzer/Staat ONEWEBN/UK

Große Konstellationen

Loading constellations...